Orbital Elements at Epoch 2459200.5 (2020-Dec-17.0) TDB
Reference: JPL 18 (heliocentric ecliptic J2000)
Element | Value | Uncertainty (1-sigma) | Units |
e | .1989877817383403 | 4.9585e-08 | |
a | 2.710410589673818 | 2.0507e-08 | au |
q | 2.171071998834518 | 1.3138e-07 | au |
i | 6.95950173604414 | 5.7585e-06 | deg |
node | 262.9095828007075 | 4.6114e-05 | deg |
peri | 192.6408715002032 | 4.8479e-05 | deg |
M | 231.2803570257383 | 1.5704e-05 | deg |
tp | 2459783.264892642268 (2022-Jul-22.76489264) | 7.3972e-05 | TDB |
period | 1629.862828264419 4.46 | 1.8497e-05 5.064e-08 | d yr |
n | .2208774835262368 | 2.5067e-09 | deg/d |
Q | 3.249749180513118 | 2.4587e-08 | au |
|
| | Orbit Determination Parameters
Additional Information
|